Regional Weather Roundup
Issued by NWS

Home | Current Version | Previous Version | Graphics & Text | Print | Product List | Glossary On
Versions: 1 2 3 4 5 6 7 8 9 10 11 12 13 14 15 16 17 18 19 20 21 22 23 24 25 26 27 28 29 30 31 32 33 34 35 36 37 38 39 40 41 42 43 44 45 46 47 48 49 50
000
ASUS45 KCYS 011010
RWRWY

WYOMING REGIONAL WEATHER ROUNDUP
NATIONAL WEATHER SERVICE CHEYENNE WY
400 AM MDT MON JUN 01 2015

NOTE:  "FAIR" INDICATES FEW OR NO CLOUDS BELOW 12,000 FEET
WITH NO SIGNIFICANT WEATHER AND/OR OBSTRUCTIONS TO VISIBILITY.

WYZ001-011100-
YELLOWSTONE NATIONAL PARK

CITY           SKY/WX    TMP DP  RH WIND       PRES   REMARKS
LK YELLOWSTONE   N/A     44  39  82 CALM      30.22S
W YELLOWSTONE  NOT AVBL

$$
WYZ002>013-054>058-071-098>099-011100-
NORTHERN WYOMING

CITY           SKY/WX    TMP DP  RH WIND       PRES   REMARKS
JACKSON        MOCLDY    52  46  82 NE6       30.14R
CODY           FAIR      66  39  37 SW9G20    29.99F
GREYBULL       FAIR      60  52  74 SE3       29.95F
WORLAND        FAIR      57  51  80 S9        29.98R
SHERIDAN       FAIR      55  50  83 S9        29.95F
BUFFALO        FAIR      59  48  67 W3        30.03F
GILLETTE       FAIR      57  53  86 W6        30.02R
HULETT         FAIR      59  52  77 SW5       30.00S
NEWCASTLE      FAIR      61  48  63 E8        30.02S

$$
WYZ014>020-022>026-101>103-011100-
CENTRAL WYOMING

CITY           SKY/WX    TMP DP  RH WIND       PRES   REMARKS
BIG PINEY      MOCLDY    50  42  74 N12       30.15F
PINEDALE       PTSUNNY   46  45  93 NW3       30.16S
DUBOIS         FAIR      50  37  62 W6        30.16F
LANDER         FAIR      60  42  51 MISG      30.03R
RIVERTON       FAIR      56  47  71 NW14      30.03S
CASPER         FAIR      50  47  89 NW5       30.03F
DOUGLAS        FAIR      51  48  89 SE5       30.03S

$$
WYZ021-027>030-104>119-011100-
SOUTHERN WYOMING

CITY           SKY/WX    TMP DP  RH WIND       PRES   REMARKS
EVANSTON       FAIR      58  36  43 SW3       30.12F
KEMMERER       FAIR      46  41  81 NW7       30.15R
FORT BRIDGER   MOSUNNY   61  36  39 S17       30.14F
ROCK SPRINGS   FAIR      56  38  50 SW5       30.13S
DIXON          FAIR      50  42  75 E8        30.18F
RAWLINS        FAIR      50  40  68 CALM      30.16S
SARATOGA       FAIR      50  37  62 SE9       30.18S
LARAMIE        FAIR      43  37  79 SE10      30.19S
CHEYENNE       FAIR      50  46  86 W6        30.13R
TORRINGTON     FAIR      55  51  86 E9        30.00F
PINE BLUFFS    FAIR      48  46  93 CALM      30.09S

$$



USA.gov is the U.S. government's official web portal to all federal, state and local government web resources and services.